[[{"header":{"parameterUnit":"m.s-1","parameterCategory":1,"la1":30.2991,"la2":30.254,"lo1":-89.0895,"lo2":-89.0444,"dy":0.0017,"dx":0.0017,"nx":28,"ny":28,"refTime":"2023-08-07T09:00:00:Z","depth":0,"parameterNumber":2,"parameterNumberName":"U-component_of_WINDS"},"data":[0,0,0,0,0,0,0,0,0,0,0,0,0,0,0,0,0,0,0,0,0,0,0,0,0,0,0,0,0,0,0,0,0,0,0,0,0,0,0,0,0,0,0,0,0,0,0,0,0,0,0,0,0,0,0,0,0,0,2.8235,2.8236,0,2.8334,2.8336,2.8337,2.8391,2.8391,2.8391,2.8391,2.8497,2.8499,2.8502,0,0,0,0,0,0,0,0,0,0,0,0,0,2.8097,2.8099,2.8234,2.8236,2.8237,2.8334,2.8336,2.8337,2.8391,2.8391,2.8391,2.8391,2.8496,2.8499,2.8502,0,0,0,0,0,0,0,0,0,0,0,0,0,2.8173,2.81,2.8234,2.8275,2.828,2.8334,2.8336,2.8337,2.8391,2.8391,2.8391,2.8391,2.8495,2.8499,2.8503,2.8524,0,0,2.8515,2.8517,0,0,0,0,0,0,0,0,2.8168,2.8178,2.8268,2.8273,2.8278,2.835,2.8326,2.84,2.8391,2.8349,2.8391,2.8391,2.8448,2.8456,2.8474,2.8529,2.8534,2.8515,2.8518,2.852,2.8521,0,0,0,0,0,0,0,2.8163,2.8174,2.8274,2.8269,2.8275,2.8291,2.8302,2.834,2.8396,2.8352,2.8357,2.8367,2.8451,2.847,2.8477,2.8535,2.8515,2.8519,2.8521,2.8523,2.8618,2.8618,0,0,0,0,0,0,2.815,2.8169,2.8271,2.8277,2.8222,2.8293,2.8306,2.8327,2.8396,2.8407,2.8367,2.837,2.8463,2.8472,2.8481,2.8513,2.852,2.8523,2.8526,2.8618,2.8618,2.8618,0,0,0,0,0,0,2.8147,2.8159,2.8267,2.8224,2.8239,2.8296,2.8319,2.8329,2.8348,2.8407,2.8418,2.8376,2.8464,2.8475,2.8514,2.8518,2.8525,2.8529,2.8618,2.8618,2.8618,2.8576,0,0,0,0,0,0,2.8143,2.8157,2.8164,2.8224,2.8241,2.8295,2.8319,2.8331,2.8355,2.8359,2.8419,2.8429,2.8465,2.8508,2.8518,2.8523,2.8532,2.8618,2.8618,2.8618,2.8577,2.8575,2.8573,0,0,0,0,0,2.8138,2.8148,2.8164,2.8176,2.825,2.8295,2.8306,2.8346,2.8355,2.8363,2.8402,2.8427,2.8516,2.8511,2.8523,2.853,2.8618,2.8618,2.8618,2.8578,2.8575,2.8573,0,0,0,0,0,0,2.8087,2.8156,2.8175,2.8204,2.8244,2.8304,2.8316,2.8341,2.8379,2.8381,2.8431,2.8444,2.8479,2.8509,2.8502,2.8557,2.857,2.8573,2.8536,2.8533,2.8531,2.8522,2.8535,0,0,0,0,0,2.8079,2.8108,2.8168,2.8189,2.8207,2.8258,2.8279,2.8308,2.8351,2.8368,2.8409,2.8451,2.849,2.8513,2.8551,2.8583,2.8599,2.8594,2.8592,2.859,2.8591,2.8614,2.8613,2.8619,2.8619,2.8619,0,0,2.8063,2.8105,2.812,2.8179,2.8213,2.8245,2.8272,2.8303,2.8327,2.8373,2.8412,2.8444,2.8495,2.8531,2.8549,2.8557,2.8594,2.859,2.8588,2.859,2.8614,2.8613,2.8613,2.8619,2.8619,2.8619,0,0,2.8049,2.8083,2.8105,2.8139,2.8191,2.8225,2.8231,2.8289,2.8312,2.8353,2.8389,2.842,2.8483,2.8519,2.8546,2.8552,2.8578,2.8564,2.855,2.8572,2.8572,2.8571,2.8575,2.8576,2.8565,2.8565,2.8565,0,2.8023,2.8069,2.8114,2.8144,2.817,2.8214,2.8239,2.827,2.8331,2.835,2.8358,2.8442,2.8479,2.8526,2.8528,2.8547,2.8557,2.8556,2.8568,2.8568,2.8569,2.8573,2.8574,2.8563,2.8563,2.8564,2.8564,0,2.8036,2.8068,2.8081,2.8139,2.8167,2.8194,2.8245,2.8269,2.8297,2.8332,2.8374,2.8422,2.8471,2.8485,2.8512,2.8537,2.8541,2.8558,2.8572,2.8565,2.8571,2.8572,2.856,2.8561,2.8562,2.8562,0,0,2.7988,2.8074,2.8078,2.8107,2.8169,2.8196,2.8228,2.8276,2.8297,2.834,2.8369,2.8424,2.8442,2.8472,2.8504,2.8523,2.8528,2.8539,2.8541,2.8536,2.8563,2.8549,2.8549,2.8547,2.8547,2.8548,2.8559,0,2.7984,2.804,2.8083,2.8124,2.8156,2.8201,2.8229,2.8272,2.8307,2.8342,2.8382,2.8421,2.844,2.8459,2.848,2.8523,2.8534,2.8523,2.8576,2.8577,2.856,2.8552,2.8536,2.8544,2.8561,2.8561,2.8561,0,2.7985,2.8026,2.807,2.8133,2.8148,2.8172,2.8223,2.8255,2.8306,2.8331,2.8367,2.8401,2.844,2.8452,2.8508,2.8499,2.8525,2.855,2.8551,2.8556,2.8567,2.8557,2.8547,2.8548,2.8565,2.8564,2.8564,0,2.7947,2.8014,2.805,2.8073,2.8147,2.8163,2.8195,2.8247,2.8275,2.8321,2.834,2.839,2.8417,2.8456,2.8504,2.8508,2.8556,2.8571,2.8579,2.8578,2.8585,2.8584,2.8578,2.8602,2.8602,2.8602,2.8602,0,2.7937,2.7962,2.8034,2.8056,2.8087,2.8139,2.8169,2.8206,2.8253,2.8284,2.8328,2.8357,2.8419,2.8458,2.8496,2.8538,2.855,2.8573,2.8582,2.8568,2.8565,2.8584,2.8584,2.8602,2.8602,2.8602,2.8602,0,2.7898,2.7947,2.7989,2.8057,2.8076,2.8096,2.8155,2.818,2.822,2.826,2.8273,2.8335,2.8383,2.8435,2.85,2.8527,2.8567,2.8581,2.8548,2.8554,2.8559,2.8558,2.8565,2.857,2.859,2.859,2.8589,0,2.7887,2.7908,2.7979,2.8003,2.8034,2.8073,2.8102,2.8156,2.8186,2.8249,2.8267,2.8319,2.8362,2.8437,2.8489,2.8541,2.8557,2.8556,2.8564,2.8551,2.8558,2.8555,2.8559,2.8553,2.8552,2.8552,2.8551,0,2.7863,2.7888,2.7928,2.7978,2.8013,2.8055,2.8099,2.8117,2.8181,2.8212,2.8262,2.8296,2.8364,2.8415,2.8474,2.851,2.8542,2.8549,2.8554,2.8539,2.8519,2.8531,2.8541,2.8548,2.8548,2.8548,2.8549,2.8549,2.7839,2.7861,2.7915,2.796,2.7999,2.8041,2.8068,2.8113,2.8154,2.8213,2.8244,2.8294,2.8351,2.8433,2.8469,2.8511,2.852,2.8527,2.8528,2.8529,2.8526,2.8514,2.8522,2.8522,2.8522,2.8522,2.8522,0,2.7818,2.7856,2.7897,2.7958,2.7995,2.8023,2.8075,2.8103,2.8146,2.8196,2.8239,2.8298,2.835,2.8408,2.8464,2.8487,2.8503,2.8499,2.8498,2.8506,2.8513,2.8504,2.8485,2.8485,2.8485,2.8485,2.8485,2.8485,2.7811,2.785,2.7882,2.7944,2.7983,2.8031,2.8059,2.8099,2.8139,2.8203,2.8246,2.8284,2.8339,2.84,2.845,2.8466,2.8485,2.8477,2.8497,2.8502,2.8505,2.8508,2.8499,2.8481,2.8481,2.8487,2.8487,2.8487]},{"header":{"parameterUnit":"m.s-1","parameterCategory":1,"la1":30.2991,"la2":30.254,"lo1":-89.0895,"lo2":-89.0444,"dy":0.0017,"dx":0.0017,"nx":28,"ny":28,"refTime":"2023-08-07T09:00:00:Z","depth":0,"parameterNumber":3,"parameterNumberName":"V-component_of_WINDS"},"data":[0,0,0,0,0,0,0,0,0,0,0,0,0,0,0,0,0,0,0,0,0,0,0,0,0,0,0,0,0,0,0,0,0,0,0,0,0,0,0,0,0,0,0,0,0,0,0,0,0,0,0,0,0,0,0,0,0,0,3.6372,3.6373,0,3.6517,3.6518,3.652,3.6585,3.6585,3.6585,3.6584,3.6727,3.673,3.6734,0,0,0,0,0,0,0,0,0,0,0,0,0,3.6143,3.6147,3.6371,3.6373,3.6375,3.6517,3.6519,3.6521,3.6585,3.6585,3.6585,3.6584,3.6725,3.673,3.6735,0,0,0,0,0,0,0,0,0,0,0,0,0,3.626,3.6148,3.6371,3.6424,3.6431,3.6516,3.6519,3.6521,3.6585,3.6585,3.6585,3.6584,3.6724,3.673,3.6735,3.6777,0,0,3.6753,3.6756,0,0,0,0,0,0,0,0,3.6254,3.6269,3.6415,3.6421,3.6428,3.6533,3.649,3.6606,3.6585,3.6526,3.6584,3.6584,3.6662,3.6673,3.67,3.6783,3.6789,3.6754,3.6757,3.676,3.6762,0,0,0,0,0,0,0,3.6246,3.6263,3.6429,3.6417,3.6425,3.6439,3.6455,3.6513,3.6593,3.6531,3.6536,3.6553,3.6665,3.6695,3.6704,3.6791,3.6754,3.6759,3.6763,3.6765,3.6915,3.6915,0,0,0,0,0,0,3.623,3.6256,3.6424,3.6433,3.6339,3.6443,3.6462,3.6499,3.6593,3.6607,3.6553,3.6556,3.6685,3.6697,3.6709,3.6764,3.676,3.6766,3.6769,3.6914,3.6915,3.6915,0,0,0,0,0,0,3.6224,3.6244,3.6418,3.6346,3.6369,3.6448,3.6489,3.6502,3.6532,3.661,3.6624,3.6569,3.6685,3.6701,3.676,3.677,3.6768,3.6774,3.6914,3.6914,3.6915,3.6873,0,0,0,0,0,0,3.6218,3.6242,3.626,3.6346,3.6373,3.6468,3.649,3.6505,3.6542,3.6547,3.6628,3.6641,3.6686,3.6751,3.6766,3.6778,3.6778,3.6913,3.6914,3.6915,3.6874,3.6873,3.6871,0,0,0,0,0,3.6209,3.6241,3.6261,3.6281,3.6398,3.6469,3.6484,3.6537,3.6543,3.6561,3.6611,3.6638,3.6766,3.6756,3.6774,3.6788,3.6913,3.6914,3.6915,3.6875,3.6873,3.6871,0,0,0,0,0,0,3.6152,3.6253,3.6276,3.6337,3.6394,3.648,3.6504,3.6533,3.6588,3.659,3.6651,3.6669,3.6722,3.6761,3.6748,3.6832,3.6842,3.6846,3.6805,3.6804,3.6803,3.6792,3.6783,0,0,0,0,0,3.6147,3.6199,3.6283,3.6329,3.6357,3.6425,3.6458,3.6494,3.6555,3.6578,3.6633,3.6688,3.6741,3.6775,3.6828,3.688,3.6898,3.6898,3.6896,3.6895,3.6898,3.6928,3.6929,3.6918,3.6918,3.6918,0,0,3.6136,3.6198,3.6227,3.6319,3.6368,3.6417,3.6445,3.6497,3.6534,3.6586,3.6645,3.6686,3.6753,3.6808,3.6835,3.6842,3.6905,3.6896,3.6894,3.6899,3.6929,3.693,3.6931,3.6919,3.6919,3.6919,0,0,3.6143,3.6195,3.6239,3.6287,3.6361,3.6406,3.6416,3.6498,3.6528,3.6589,3.6629,3.6672,3.6762,3.6808,3.6842,3.6865,3.6892,3.688,3.6872,3.6901,3.6902,3.6903,3.6911,3.6913,3.6883,3.6883,3.6883,0,3.612,3.62,3.6257,3.6308,3.6346,3.6397,3.6441,3.6484,3.657,3.6595,3.6601,3.6715,3.6763,3.683,3.6836,3.6862,3.6874,3.6872,3.6897,3.6899,3.6901,3.6909,3.6912,3.6881,3.6881,3.6881,3.6882,0,3.6167,3.6221,3.6248,3.6332,3.6374,3.642,3.6483,3.6517,3.6549,3.6593,3.6653,3.6713,3.6779,3.6797,3.6828,3.6868,3.687,3.6886,3.6897,3.6899,3.6908,3.6911,3.6878,3.6879,3.688,3.688,0,0,3.6143,3.6259,3.6267,3.6306,3.6391,3.6433,3.648,3.6547,3.6575,3.6632,3.6672,3.6747,3.6763,3.6802,3.6838,3.6863,3.6877,3.6876,3.6879,3.6874,3.6924,3.6912,3.6915,3.6895,3.6896,3.6896,3.6919,0,3.6161,3.6253,3.6305,3.6374,3.6424,3.6472,3.6513,3.6568,3.661,3.6657,3.6701,3.6754,3.677,3.6794,3.6821,3.6869,3.6888,3.6868,3.6932,3.6934,3.6915,3.692,3.6907,3.6926,3.6923,3.6923,3.6924,0,3.6196,3.6254,3.6328,3.6407,3.6429,3.6466,3.6531,3.6575,3.6638,3.6666,3.671,3.6746,3.6796,3.6802,3.6871,3.6857,3.6886,3.6913,3.6915,3.6924,3.6929,3.6928,3.6933,3.6935,3.693,3.6929,3.6929,0,3.6171,3.6267,3.6324,3.6356,3.6449,3.6473,3.6513,3.6575,3.6611,3.6667,3.6691,3.675,3.6783,3.6827,3.6878,3.6878,3.6941,3.6952,3.6965,3.6964,3.6977,3.6976,3.6987,3.6995,3.6995,3.6994,3.6994,0,3.6186,3.623,3.6315,3.6349,3.6399,3.6458,3.6504,3.6547,3.6602,3.6644,3.6688,3.6726,3.6791,3.6836,3.6876,3.6927,3.6941,3.6964,3.6974,3.6961,3.6958,3.6981,3.6981,3.6995,3.6995,3.6995,3.6995,0,3.6168,3.6226,3.6292,3.6375,3.6396,3.6429,3.6499,3.6533,3.6577,3.663,3.6646,3.6714,3.677,3.6825,3.6899,3.6925,3.6976,3.6989,3.6956,3.6961,3.6972,3.697,3.6999,3.7005,3.7007,3.7007,3.7007,0,3.6174,3.6209,3.6296,3.6329,3.6368,3.642,3.6458,3.6516,3.6553,3.6627,3.6652,3.6711,3.6763,3.6849,3.6904,3.6961,3.6976,3.6981,3.6984,3.697,3.6976,3.6974,3.6977,3.698,3.698,3.6979,3.6979,0,3.6179,3.6207,3.6261,3.6325,3.6369,3.6422,3.6476,3.6499,3.6568,3.6606,3.6666,3.6705,3.6782,3.684,3.6904,3.6942,3.6971,3.6978,3.6984,3.6971,3.6951,3.6962,3.6952,3.6977,3.6977,3.6977,3.6978,3.6978,3.6174,3.6207,3.6274,3.6332,3.6379,3.6428,3.6465,3.6514,3.6565,3.6634,3.6664,3.6724,3.6784,3.6872,3.691,3.6955,3.6963,3.6972,3.6974,3.6976,3.6973,3.6943,3.6967,3.6967,3.6967,3.6967,3.6967,0,3.6182,3.6227,3.628,3.6356,3.6401,3.6427,3.6487,3.6523,3.6576,3.663,3.668,3.6747,3.6804,3.6863,3.6922,3.6947,3.6962,3.6961,3.696,3.6968,3.6963,3.6952,3.6948,3.6948,3.6948,3.6948,3.6948,3.6948,3.6191,3.6249,3.6284,3.6364,3.6409,3.6469,3.6502,3.6547,3.6591,3.6665,3.6713,3.6751,3.6807,3.6871,3.6923,3.6939,3.6959,3.6954,3.6973,3.6967,3.6968,3.697,3.696,3.6957,3.6957,3.6975,3.6975,3.6975]}]]